Time,TemperatureF,DewpointF,PressureIn,WindDirection,WindDirectionDegrees,WindSpeedMPH,WindSpeedGustMPH,Humidity,HourlyPrecipIn,Conditions,Clouds,dailyrainin,SolarRadiationWatts/m^2,SoftwareType,DateUTC
2013-02-28 00:01:00,36.0,29.0,-100.00,SW,236,5.0,10.0,76,0.00,,,0.00,0.000000,,2013-02-28 08:01:00,
2013-02-28 00:11:00,36.0,29.0,-100.00,SW,236,5.0,10.0,76,0.00,,,0.00,0.000000,,2013-02-28 08:11:00,
2013-02-28 00:21:00,36.0,29.0,-100.00,SW,236,5.0,10.0,76,0.00,,,0.00,0.000000,,2013-02-28 08:21:00,
2013-02-28 00:31:00,36.0,29.0,-100.00,SW,236,5.0,10.0,76,0.00,,,0.00,0.000000,,2013-02-28 08:31:00,
2013-02-28 00:53:00,38.0,30.0,-100.00,SW,214,9.0,16.0,74,0.00,,,0.00,0.000000,,2013-02-28 08:53:00,
2013-02-28 01:03:00,38.0,30.0,-100.00,SW,214,9.0,16.0,74,0.00,,,0.00,0.000000,,2013-02-28 09:03:00,
2013-02-28 01:11:00,38.0,30.0,-100.00,SW,214,9.0,16.0,74,0.00,,,0.00,0.000000,,2013-02-28 09:11:00,
2013-02-28 01:21:00,38.0,30.0,-100.00,SW,214,9.0,16.0,74,0.00,,,0.00,0.000000,,2013-02-28 09:21:00,
2013-02-28 01:31:00,38.0,30.0,-100.00,SW,214,9.0,16.0,74,0.00,,,0.00,0.000000,,2013-02-28 09:31:00,
2013-02-28 01:52:00,37.0,28.0,-100.00,SSW,213,6.0,15.0,70,0.00,,,0.00,0.000000,,2013-02-28 09:52:00,
2013-02-28 02:01:00,37.0,28.0,-100.00,SSW,213,6.0,15.0,70,0.00,,,0.00,0.000000,,2013-02-28 10:01:00,
2013-02-28 02:11:00,37.0,28.0,-100.00,SSW,213,6.0,15.0,70,0.00,,,0.00,0.000000,,2013-02-28 10:11:00,
2013-02-28 02:21:00,37.0,28.0,-100.00,SSW,213,6.0,15.0,70,0.00,,,0.00,0.000000,,2013-02-28 10:21:00,
2013-02-28 02:31:00,37.0,28.0,-100.00,SSW,213,6.0,15.0,70,0.00,,,0.00,0.000000,,2013-02-28 10:31:00,
2013-02-28 02:52:00,38.0,29.0,-100.00,SW,216,7.0,12.0,70,0.00,,,0.00,0.000000,,2013-02-28 10:52:00,
2013-02-28 03:01:00,38.0,29.0,-100.00,SW,216,7.0,12.0,70,0.00,,,0.00,0.000000,,2013-02-28 11:01:00,
2013-02-28 03:11:00,38.0,29.0,-100.00,SW,216,7.0,12.0,70,0.00,,,0.00,0.000000,,2013-02-28 11:11:00,
2013-02-28 03:21:00,38.0,29.0,-100.00,SW,216,7.0,12.0,70,0.00,,,0.00,0.000000,,2013-02-28 11:21:00,
2013-02-28 03:31:00,38.0,29.0,-100.00,SW,216,7.0,12.0,70,0.00,,,0.00,0.000000,,2013-02-28 11:31:00,
2013-02-28 03:52:00,37.0,28.0,-100.00,SSW,200,6.0,11.0,70,0.00,,,0.00,0.000000,,2013-02-28 11:52:00,
2013-02-28 04:01:00,37.0,28.0,-100.00,SSW,200,6.0,11.0,70,0.00,,,0.00,0.000000,,2013-02-28 12:01:00,
2013-02-28 04:11:00,37.0,28.0,-100.00,SSW,200,6.0,11.0,70,0.00,,,0.00,0.000000,,2013-02-28 12:11:00,
2013-02-28 04:21:00,37.0,28.0,-100.00,SSW,200,6.0,11.0,70,0.00,,,0.00,0.000000,,2013-02-28 12:21:00,
2013-02-28 04:31:00,37.0,28.0,-100.00,SSW,200,6.0,11.0,70,0.00,,,0.00,0.000000,,2013-02-28 12:31:00,
2013-02-28 04:52:00,37.0,29.0,-100.00,SW,217,6.0,10.0,74,0.00,,,0.00,0.000000,,2013-02-28 12:52:00,
2013-02-28 05:01:00,37.0,29.0,-100.00,SW,217,6.0,10.0,74,0.00,,,0.00,0.000000,,2013-02-28 13:01:00,
2013-02-28 05:11:00,37.0,29.0,-100.00,SW,217,6.0,10.0,74,0.00,,,0.00,0.000000,,2013-02-28 13:11:00,
2013-02-28 05:21:00,37.0,29.0,-100.00,SW,217,6.0,10.0,74,0.00,,,0.00,0.000000,,2013-02-28 13:21:00,
2013-02-28 05:31:00,37.0,29.0,-100.00,SW,217,6.0,10.0,74,0.00,,,0.00,0.000000,,2013-02-28 13:31:00,
2013-02-28 05:52:00,38.0,31.0,-100.00,SW,223,8.0,12.0,76,0.00,,,-99.99,0.000000,,2013-02-28 13:52:00,
2013-02-28 06:01:00,38.0,31.0,-100.00,SW,223,8.0,12.0,76,0.00,,,-99.99,0.000000,,2013-02-28 14:01:00,
2013-02-28 06:11:00,38.0,31.0,-100.00,SW,223,8.0,12.0,76,0.00,,,-99.99,0.000000,,2013-02-28 14:11:00,
2013-02-28 06:21:00,38.0,31.0,-100.00,SW,223,8.0,12.0,76,0.00,,,-99.99,0.000000,,2013-02-28 14:21:00,
2013-02-28 06:31:00,38.0,31.0,-100.00,SW,223,8.0,12.0,76,0.00,,,-99.99,0.000000,,2013-02-28 14:31:00,
2013-02-28 06:52:00,38.0,32.0,-100.00,SW,229,8.0,14.0,78,0.00,,,0.00,0.000000,,2013-02-28 14:52:00,
2013-02-28 07:02:00,38.0,32.0,-100.00,SW,229,8.0,14.0,78,0.00,,,0.00,0.000000,,2013-02-28 15:02:00,
2013-02-28 07:11:00,38.0,32.0,-100.00,SW,229,8.0,14.0,78,0.00,,,0.00,0.000000,,2013-02-28 15:11:00,
2013-02-28 07:21:00,38.0,32.0,-100.00,SW,229,8.0,14.0,78,0.00,,,0.00,0.000000,,2013-02-28 15:21:00,
2013-02-28 07:31:00,38.0,32.0,-100.00,SW,229,8.0,14.0,78,0.00,,,0.00,0.000000,,2013-02-28 15:31:00,
2013-02-28 07:52:00,39.0,33.0,-100.00,SW,221,6.0,10.0,80,0.00,,,0.00,9.000000,,2013-02-28 15:52:00,
2013-02-28 08:01:00,39.0,33.0,-100.00,SW,221,6.0,10.0,80,0.00,,,0.00,9.000000,,2013-02-28 16:01:00,
2013-02-28 08:11:00,39.0,33.0,-100.00,SW,221,6.0,10.0,80,0.00,,,0.00,9.000000,,2013-02-28 16:11:00,
2013-02-28 08:21:00,39.0,33.0,-100.00,SW,221,6.0,10.0,80,0.00,,,0.00,9.000000,,2013-02-28 16:21:00,
2013-02-28 08:31:00,39.0,33.0,-100.00,SW,221,6.0,10.0,80,0.00,,,0.00,9.000000,,2013-02-28 16:31:00,
2013-02-28 08:52:00,40.0,34.0,-100.00,WSW,242,5.0,12.0,80,0.00,,,-99.99,33.000000,,2013-02-28 16:52:00,
2013-02-28 09:01:00,40.0,34.0,-100.00,WSW,242,5.0,12.0,80,0.00,,,-99.99,33.000000,,2013-02-28 17:01:00,
2013-02-28 09:11:00,40.0,34.0,-100.00,WSW,242,5.0,12.0,80,0.00,,,-99.99,33.000000,,2013-02-28 17:11:00,
2013-02-28 09:21:00,40.0,34.0,-100.00,WSW,242,5.0,12.0,80,0.00,,,-99.99,33.000000,,2013-02-28 17:21:00,
2013-02-28 09:31:00,40.0,34.0,-100.00,WSW,242,5.0,12.0,80,0.00,,,-99.99,33.000000,,2013-02-28 17:31:00,
2013-02-28 09:52:00,43.0,36.0,-100.00,SW,215,6.0,12.0,77,0.00,,,0.00,147.000000,,2013-02-28 17:52:00,
2013-02-28 10:02:00,43.0,36.0,-100.00,SW,215,6.0,12.0,77,0.00,,,0.00,147.000000,,2013-02-28 18:02:00,
2013-02-28 10:11:00,43.0,36.0,-100.00,SW,215,6.0,12.0,77,0.00,,,0.00,147.000000,,2013-02-28 18:11:00,
2013-02-28 10:21:00,43.0,36.0,-100.00,SW,215,6.0,12.0,77,0.00,,,0.00,147.000000,,2013-02-28 18:21:00,
2013-02-28 10:31:00,43.0,36.0,-100.00,SW,215,6.0,12.0,77,0.00,,,0.00,147.000000,,2013-02-28 18:31:00,
2013-02-28 10:52:00,45.0,36.0,-100.00,SW,222,9.0,14.0,70,0.00,,,0.00,333.000000,,2013-02-28 18:52:00,
2013-02-28 11:01:00,45.0,36.0,-100.00,SW,222,9.0,14.0,70,0.00,,,0.00,333.000000,,2013-02-28 19:01:00,
2013-02-28 11:11:00,45.0,36.0,-100.00,SW,222,9.0,14.0,70,0.00,,,0.00,333.000000,,2013-02-28 19:11:00,
2013-02-28 11:21:00,45.0,36.0,-100.00,SW,222,9.0,14.0,70,0.00,,,0.00,333.000000,,2013-02-28 19:21:00,
2013-02-28 11:31:00,45.0,36.0,-100.00,SW,222,9.0,14.0,70,0.00,,,0.00,333.000000,,2013-02-28 19:31:00,
2013-02-28 11:52:00,45.0,35.0,-100.00,WSW,244,9.0,17.0,69,0.00,,,0.00,329.000000,,2013-02-28 19:52:00,
2013-02-28 12:01:00,45.0,35.0,-100.00,WSW,244,9.0,17.0,69,0.00,,,0.00,329.000000,,2013-02-28 20:01:00,
2013-02-28 12:11:00,45.0,35.0,-100.00,WSW,244,9.0,17.0,69,0.00,,,0.00,329.000000,,2013-02-28 20:11:00,
2013-02-28 12:21:00,45.0,35.0,-100.00,WSW,244,9.0,17.0,69,0.00,,,0.00,329.000000,,2013-02-28 20:21:00,
2013-02-28 12:31:00,45.0,35.0,-100.00,WSW,244,9.0,17.0,69,0.00,,,0.00,329.000000,,2013-02-28 20:31:00,
2013-02-28 12:52:00,47.0,38.0,-100.00,WSW,240,12.0,19.0,70,0.00,,,0.00,238.000000,,2013-02-28 20:52:00,
2013-02-28 13:01:00,47.0,38.0,-100.00,WSW,240,12.0,19.0,70,0.00,,,0.00,238.000000,,2013-02-28 21:01:00,
2013-02-28 13:11:00,47.0,38.0,-100.00,WSW,240,12.0,19.0,70,0.00,,,0.00,238.000000,,2013-02-28 21:11:00,
2013-02-28 13:22:00,47.0,38.0,-100.00,WSW,240,12.0,19.0,70,0.00,,,0.00,238.000000,,2013-02-28 21:22:00,
2013-02-28 13:31:00,47.0,38.0,-100.00,WSW,240,12.0,19.0,70,0.00,,,0.00,238.000000,,2013-02-28 21:31:00,
2013-02-28 13:52:00,52.0,38.0,-100.00,WSW,248,12.0,22.0,59,0.00,,,0.00,597.000000,,2013-02-28 21:52:00,
2013-02-28 14:01:00,52.0,38.0,-100.00,WSW,248,12.0,22.0,59,0.00,,,0.00,597.000000,,2013-02-28 22:01:00,
2013-02-28 14:11:00,52.0,38.0,-100.00,WSW,248,12.0,22.0,59,0.00,,,0.00,597.000000,,2013-02-28 22:11:00,
2013-02-28 14:21:00,52.0,38.0,-100.00,WSW,248,12.0,22.0,59,0.00,,,0.00,597.000000,,2013-02-28 22:21:00,
2013-02-28 14:31:00,52.0,38.0,-100.00,WSW,248,12.0,22.0,59,0.00,,,0.00,597.000000,,2013-02-28 22:31:00,
2013-02-28 14:52:00,49.0,37.0,-100.00,SW,235,11.0,20.0,62,0.00,,,0.00,319.000000,,2013-02-28 22:52:00,
2013-02-28 15:01:00,49.0,37.0,-100.00,SW,235,11.0,20.0,62,0.00,,,0.00,319.000000,,2013-02-28 23:01:00,
2013-02-28 15:11:00,49.0,37.0,-100.00,SW,235,11.0,20.0,62,0.00,,,0.00,319.000000,,2013-02-28 23:11:00,
2013-02-28 15:21:00,49.0,37.0,-100.00,SW,235,11.0,20.0,62,0.00,,,0.00,319.000000,,2013-02-28 23:21:00,
2013-02-28 15:31:00,49.0,37.0,-100.00,SW,235,11.0,20.0,62,0.00,,,0.00,319.000000,,2013-02-28 23:31:00,
2013-02-28 15:53:00,49.0,38.0,-100.00,WSW,239,7.0,20.0,66,0.00,,,0.00,220.000000,,2013-02-28 23:53:00,
2013-02-28 16:01:00,49.0,38.0,-100.00,WSW,239,7.0,20.0,66,0.00,,,0.00,220.000000,,2013-03-01 00:01:00,
2013-02-28 16:11:00,49.0,38.0,-100.00,WSW,239,7.0,20.0,66,0.00,,,0.00,220.000000,,2013-03-01 00:11:00,
2013-02-28 16:22:00,49.0,38.0,-100.00,WSW,239,7.0,20.0,66,0.00,,,0.00,220.000000,,2013-03-01 00:22:00,
2013-02-28 16:32:00,49.0,38.0,-100.00,WSW,239,7.0,20.0,66,0.00,,,0.00,220.000000,,2013-03-01 00:32:00,
2013-02-28 16:52:00,47.0,37.0,-100.00,WSW,237,10.0,19.0,69,0.00,,,0.00,151.000000,,2013-03-01 00:52:00,
2013-02-28 17:01:00,47.0,37.0,-100.00,WSW,237,10.0,19.0,69,0.00,,,0.00,151.000000,,2013-03-01 01:01:00,
2013-02-28 17:11:00,47.0,37.0,-100.00,WSW,237,10.0,19.0,69,0.00,,,0.00,151.000000,,2013-03-01 01:11:00,
2013-02-28 17:21:00,47.0,37.0,-100.00,WSW,237,10.0,19.0,69,0.00,,,0.00,151.000000,,2013-03-01 01:21:00,
2013-02-28 17:31:00,47.0,37.0,-100.00,WSW,237,10.0,19.0,69,0.00,,,0.00,151.000000,,2013-03-01 01:31:00,
2013-02-28 17:52:00,46.0,37.0,-100.00,WSW,249,9.0,17.0,72,0.00,,,0.00,52.000000,,2013-03-01 01:52:00,
2013-02-28 18:01:00,46.0,37.0,-100.00,WSW,249,9.0,17.0,72,0.00,,,0.00,52.000000,,2013-03-01 02:01:00,
2013-02-28 18:11:00,46.0,37.0,-100.00,WSW,249,9.0,17.0,72,0.00,,,0.00,52.000000,,2013-03-01 02:11:00,
2013-02-28 18:21:00,46.0,37.0,-100.00,WSW,249,9.0,17.0,72,0.00,,,0.00,52.000000,,2013-03-01 02:21:00,
2013-02-28 18:31:00,46.0,37.0,-100.00,WSW,249,9.0,17.0,72,0.00,,,0.00,52.000000,,2013-03-01 02:31:00,
2013-02-28 18:52:00,45.0,38.0,-100.00,WSW,244,8.0,12.0,76,0.00,,,0.00,5.000000,,2013-03-01 02:52:00,
2013-02-28 19:01:00,45.0,38.0,-100.00,WSW,244,8.0,12.0,76,0.00,,,0.00,5.000000,,2013-03-01 03:01:00,
2013-02-28 19:11:00,45.0,38.0,-100.00,WSW,244,8.0,12.0,76,0.00,,,0.00,5.000000,,2013-03-01 03:11:00,
2013-02-28 19:21:00,45.0,38.0,-100.00,WSW,244,8.0,12.0,76,0.00,,,0.00,5.000000,,2013-03-01 03:21:00,
2013-02-28 19:32:00,45.0,38.0,-100.00,WSW,244,8.0,12.0,76,0.00,,,0.00,5.000000,,2013-03-01 03:32:00,
2013-02-28 19:52:00,44.0,38.0,-100.00,WSW,237,8.0,15.0,78,0.00,,,0.00,0.000000,,2013-03-01 03:52:00,
2013-02-28 20:01:00,44.0,38.0,-100.00,WSW,237,8.0,15.0,78,0.00,,,0.00,0.000000,,2013-03-01 04:01:00,
2013-02-28 20:11:00,44.0,38.0,-100.00,WSW,237,8.0,15.0,78,0.00,,,0.00,0.000000,,2013-03-01 04:11:00,
2013-02-28 20:21:00,44.0,38.0,-100.00,WSW,237,8.0,15.0,78,0.00,,,0.00,0.000000,,2013-03-01 04:21:00,
2013-02-28 20:31:00,44.0,38.0,-100.00,WSW,237,8.0,15.0,78,0.00,,,0.00,0.000000,,2013-03-01 04:31:00,
2013-02-28 20:52:00,43.0,38.0,-100.00,WSW,245,6.0,14.0,82,0.00,,,-99.99,0.000000,,2013-03-01 04:52:00,
2013-02-28 21:02:00,43.0,38.0,-100.00,WSW,245,6.0,14.0,82,0.00,,,-99.99,0.000000,,2013-03-01 05:02:00,
2013-02-28 21:11:00,43.0,38.0,-100.00,WSW,245,6.0,14.0,82,0.00,,,-99.99,0.000000,,2013-03-01 05:11:00,
2013-02-28 21:22:00,43.0,38.0,-100.00,WSW,245,6.0,14.0,82,0.00,,,-99.99,0.000000,,2013-03-01 05:22:00,
2013-02-28 21:32:00,43.0,38.0,-100.00,WSW,245,6.0,14.0,82,0.00,,,-99.99,0.000000,,2013-03-01 05:32:00,
2013-02-28 21:52:00,43.0,38.0,-100.00,WSW,239,8.0,13.0,83,0.00,,,0.00,0.000000,,2013-03-01 05:52:00,
2013-02-28 22:02:00,43.0,38.0,-100.00,WSW,239,8.0,13.0,83,0.00,,,0.00,0.000000,,2013-03-01 06:02:00,
2013-02-28 22:11:00,43.0,38.0,-100.00,WSW,239,8.0,13.0,83,0.00,,,0.00,0.000000,,2013-03-01 06:11:00,
2013-02-28 22:21:00,43.0,38.0,-100.00,WSW,239,8.0,13.0,83,0.00,,,0.00,0.000000,,2013-03-01 06:21:00,
2013-02-28 22:31:00,43.0,38.0,-100.00,WSW,239,8.0,13.0,83,0.00,,,0.00,0.000000,,2013-03-01 06:31:00,
2013-02-28 22:52:00,41.0,35.0,-100.00,WSW,258,7.0,17.0,79,0.00,,,0.00,0.000000,,2013-03-01 06:52:00,
2013-02-28 23:01:00,41.0,35.0,-100.00,WSW,258,7.0,17.0,79,0.00,,,0.00,0.000000,,2013-03-01 07:01:00,
2013-02-28 23:11:00,41.0,35.0,-100.00,WSW,258,7.0,17.0,79,0.00,,,0.00,0.000000,,2013-03-01 07:11:00,
2013-02-28 23:21:00,41.0,35.0,-100.00,WSW,258,7.0,17.0,79,0.00,,,0.00,0.000000,,2013-03-01 07:21:00,
2013-02-28 23:31:00,41.0,35.0,-100.00,WSW,258,7.0,17.0,79,0.00,,,0.00,0.000000,,2013-03-01 07:31:00,
2013-02-28 23:52:00,42.0,35.0,-100.00,WNW,287,5.0,12.0,75,0.00,,,0.00,0.000000,,2013-03-01 07:52:00,